Flag for Austria Weather past 2 weeks in Knittelfeld, Styria, Austria

Now
52 °F

Partly sunny.


Feels Like: 47 °F
Forecast: 38 / 70 °F
Wind: 13 mph from West

Location: Zeltweg

Current Time: May 27, 2015 at 8:47:53 AM

Latest Report: May 27, 2015 at 8:20 AM


Visibility: 19 mi

Pressure: 30.07 "Hg

Humidity: 41%

Dew point: 28 °F

Location of KnittelfeldLocation

Historic Weather in Knittelfeld — Graph

°F

Knittelfeld temperature yesterday

Maximum temperature yesterday: 63 °F (at 12:50 PM)
Minimum temperature yesterday: 43 °F (at 4:50 AM)
Average temperature yesterday: 56 °F

Past Weeks' High & Low Weather Summary

 TemperatureHumidityPressure
High81 °F (May 13, 2:20 PM)100% (May 13, 10:50 PM)30.33 "Hg (May 13, 10:50 PM)
Low41 °F (May 25, 5:50 AM)24% (May 13, 2:20 PM)29.77 "Hg (May 19, 5:20 PM)
Average58 °F69%30.00 "Hg
* Reported May 12 7:20 AM — May 27 7:50 AM, Knittelfeld, Weather by CustomWeather, © 2015

Note: Actual official high and low records may vary slightly from our data, if they occured in-between our weather recording intervals... More about our weather records

Advertising

Knittelfeld weather history for previous 24 hours

 ConditionsComfort  
Time TempWeatherWind HumidityBarometerVisibility
7:50 AM
Wed, May 27
52 °FPartly sunny.8 mph44%30.04 "Hg19 mi
7:20 AM50 °FPartly sunny.6 mph54%30.04 "Hg19 mi
6:50 AM50 °FPartly sunny.10 mph50%30.04 "Hg12 mi
5:50 AM52 °FPassing clouds.10 mph44%30.01 "Hg12 mi
4:50 AM48 °FPassing clouds.3 mph66%30.01 "Hg12 mi
10:50 PM
Tue, May 26
52 °FPassing clouds.7 mph62%30.01 "Hg9 mi
9:50 PM55 °FPassing clouds.6 mph51%29.98 "Hg9 mi
8:50 PM54 °FPartly sunny.3 mph67%29.95 "Hg19 mi
7:50 PM57 °FPartly sunny.7 mph51%29.92 "Hg19 mi
6:50 PM59 °FBroken clouds.7 mph51%29.92 "Hg19 mi
5:50 PM59 °FPartly sunny.3 mph59%29.89 "Hg19 mi
4:50 PM61 °FBroken clouds.7 mph48%29.89 "Hg19 mi
4:20 PM61 °FBroken clouds.8 mph52%29.89 "Hg19 mi
3:50 PM63 °FBroken clouds.14 mph49%29.89 "Hg19 mi
3:20 PM63 °FBroken clouds.6 mph49%29.89 "Hg19 mi
2:50 PM63 °FPartly sunny.12 mph45%29.89 "Hg19 mi
2:20 PM63 °FPartly sunny.12 mph42%29.86 "Hg19 mi
1:50 PM63 °FBroken clouds.3 mph45%29.86 "Hg19 mi
1:20 PM61 °FPartly sunny.7 mph52%29.86 "Hg19 mi
12:50 PM63 °FPartly sunny.12 mph49%29.86 "Hg19 mi
12:20 PM61 °FMostly cloudy.6 mph52%29.86 "Hg19 mi
11:50 AM61 °FBroken clouds.7 mph52%29.86 "Hg19 mi
11:20 AM59 °FPartly sunny.8 mph55%29.86 "Hg19 mi
10:50 AM57 °FPartly sunny.2 mph63%29.86 "Hg19 mi
10:20 AM55 °FPartly sunny.1 mph67%29.86 "Hg19 mi
9:50 AM54 °FPartly sunny.1 mph72%29.86 "Hg19 mi
9:20 AM54 °FPartly sunny.1 mph72%29.86 "Hg19 mi
8:50 AM52 °FPartly sunny.1 mph77%29.86 "Hg19 mi
8:20 AM50 °FPartly sunny.2 mph76%29.86 "Hg19 mi
Weather by CustomWeather, © 2015

See weather overviewHow to use our weather pages